Simultaneous Nadir Overpasses (SNOs) Predictions

Prediction of SNOs between GOES-16 and AQUA Satellite Orbit:

Table of predicted SNOs for the next 14.0 days since TLE Epoch: 11/27/2021
Index Date Time (GOES-16) GOES-16 Lat,Lon AQUA Lat,Lon Distance(km) Time Diff (sec)
1 11/28/2021 18:29:31 -0.01, -75.20 0.43, -73.14 234.18 80
2 11/29/2021 06:50:46 0.01, -75.19 0.68, -78.29 352.75 80
3 12/01/2021 06:38:35 0.01, -75.18 0.02, -75.34 16.89 80
4 12/03/2021 06:23:43 0.01, -75.18 -0.60, -72.37 319.52 80
5 12/03/2021 18:45:07 -0.01, -75.18 -0.53, -77.56 270.48 80
6 12/05/2021 18:35:35 -0.01, -75.18 0.10, -74.59 65.93 80
7 12/07/2021 18:23:23 -0.00, -75.18 0.72, -71.63 402.71 80
8 12/08/2021 06:44:39 0.00, -75.18 0.32, -76.79 183.51 80
9 12/10/2021 06:29:47 -0.00, -75.19 -0.31, -73.83 154.46 80
10 12/10/2021 18:51:10 0.01, -75.19 -0.80, -79.02 435.16 80
